Weather History for Reidsville, NC

Change the Weather History Date:

Tuesday, October 30, 2012

  Actual Average (KGSO) Record (KGSO)
Temperature  
Mean Temperature 44 °F 55 °F  
Max Temperature 49 °F 67 °F 83 °F (1961)
Min Temperature 40 °F 44 °F 25 °F (1965)
Degree Days  
Heating Degree Days 20 10  
Month to date heating degree days 192  
Since 1 July heating degree days 223  
Cooling Degree Days 0 0  
Month to date cooling degree days 35  
Year to date cooling degree days 1482  
Moisture  
Dew Point 31 °F    
Average Humidity 60    
Maximum Humidity 82    
Minimum Humidity 48    
Precipitation  
Precipitation 0.01 in 0.10 in 3.19 in (1949)
Month to date precipitation 3.02  
Year to date precipitation 36.00  
Sea Level Pressure  
Sea Level Pressure 29.42 in    
Wind  
Wind Speed 11 mph (West)    
Max Wind Speed 18 mph    
Max Gust Speed 30 mph    
Visibility 10 miles    
Events Rain    
T = Trace of Precipitation, MM = Missing Value Source: NWS Daily Summary

Daily Weather History Graph

Daily Weather History Graph

Search for Another Location

Airport:

Trip Planner

Search our weather history database for the weather conditions in past years. The results will help you decide how hot, cold, wet, or windy it might be!

Date:

Astronomy

Oct. 30, 2012 Rise Set
Actual Time 7:41 AM EDT 6:24 PM EDT
Civil Twilight 7:14 AM EDT 6:51 PM EDT
Nautical Twilight 6:44 AM EDT 7:21 PM EDT
Astronomical Twilight 6:14 AM EDT 7:51 PM EDT
Moon 6:55 PM EDT (10/30) 8:24 AM EDT (10/30)
Length of Visible Light 11h 36m
Length of Day
10h 43m
Full, 99% of the Moon is Illuminated
Oct 30
Full
Nov 6
Last Quarter
Nov 13
New
Nov 20
First Quarter
Nov 28
Full

Hourly Weather History & Observations

Time (EDT) Temp. Windchill Dew Point Humidity Pressure Visibility Wind Dir Wind Speed Gust Speed Precip Events Conditions
12:15 AM 41.0 °F 34.3 °F 35.1 °F 79% 29.31 in 10.0 mi West 11.5 mph 20.7 mph N/A Rain Light Rain
12:35 AM 40.8 °F 32.6 °F 35.1 °F 80% 29.31 in 10.0 mi West 16.1 mph 24.2 mph N/A Rain Light Rain
12:55 AM 40.3 °F 33.4 °F 35.1 °F 82% 29.31 in 10.0 mi West 11.5 mph 24.2 mph 0.01 in Rain Light Rain
1:15 AM 40.3 °F 32.6 °F 34.9 °F 81% 29.30 in 10.0 mi WSW 13.8 mph 25.3 mph N/A Rain Light Rain
1:35 AM 40.5 °F 33.6 °F 34.5 °F 79% 29.30 in 10.0 mi West 11.5 mph 26.5 mph N/A Rain Light Rain
1:55 AM 40.8 °F 34.5 °F 34.2 °F 77% 29.29 in 10.0 mi West 10.4 mph 25.3 mph N/A Rain Rain
2:15 AM 41.2 °F 34.1 °F 33.3 °F 73% 29.29 in 10.0 mi WSW 12.7 mph 23.0 mph N/A   Drizzle
2:35 AM 41.5 °F 36.4 °F 32.7 °F 71% 29.29 in 10.0 mi WSW 8.1 mph 19.6 mph N/A Rain Rain
2:55 AM 41.9 °F 36.9 °F 32.2 °F 68% 29.28 in 10.0 mi West 8.1 mph 18.4 mph N/A   Drizzle
3:55 AM 42.4 °F 37.0 °F 30.9 °F 64% 29.29 in 10.0 mi West 9.2 mph 20.7 mph N/A   Light Drizzle
4:15 AM 42.4 °F 37.0 °F 30.7 °F 63% 29.29 in 10.0 mi West 9.2 mph 19.6 mph N/A   Light Drizzle
4:35 AM 42.6 °F 36.8 °F 30.6 °F 62% 29.30 in 10.0 mi West 10.4 mph 21.9 mph N/A   Light Drizzle
4:55 AM 42.8 °F 37.5 °F 30.0 °F 61% 29.30 in 10.0 mi West 9.2 mph 21.9 mph N/A   Overcast
5:15 AM 42.8 °F 37.5 °F 29.8 °F 60% 29.30 in 10.0 mi West 9.2 mph 19.6 mph N/A   Overcast
5:35 AM 42.6 °F 35.2 °F 30.0 °F 61% 29.30 in 10.0 mi West 15.0 mph 23.0 mph N/A   Drizzle
5:55 AM 42.3 °F 36.8 °F 30.2 °F 62% 29.31 in 10.0 mi West 9.2 mph 24.2 mph N/A   Light Drizzle
6:15 AM 42.1 °F 35.2 °F 30.9 °F 65% 29.32 in 10.0 mi West 12.7 mph 20.7 mph N/A Rain Rain
6:35 AM 41.2 °F 36.6 °F 31.8 °F 69% 29.32 in 10.0 mi WSW 6.9 mph 16.1 mph N/A Rain Rain
6:55 AM 41.0 °F 36.4 °F 32.0 °F 70% 29.33 in 10.0 mi West 6.9 mph - N/A   Light Drizzle
7:15 AM 41.0 °F 34.7 °F 31.6 °F 69% 29.33 in 10.0 mi West 10.4 mph 18.4 mph N/A   Drizzle
7:35 AM 41.0 °F 33.1 °F 31.8 °F 70% 29.34 in 10.0 mi WSW 15.0 mph 23.0 mph N/A   Drizzle
7:55 AM 41.4 °F 35.7 °F 31.1 °F 67% 29.34 in 10.0 mi West 9.2 mph 25.3 mph N/A   Light Drizzle
8:15 AM 42.1 °F 35.2 °F 30.4 °F 63% 29.35 in 10.0 mi West 12.7 mph 18.4 mph N/A   Overcast
8:35 AM 42.4 °F 36.1 °F 29.7 °F 61% 29.36 in 10.0 mi West 11.5 mph 21.9 mph N/A   Overcast
8:55 AM 43.0 °F 38.2 °F 29.3 °F 59% 29.36 in 10.0 mi West 8.1 mph 21.9 mph N/A   Overcast
9:15 AM 43.3 °F 37.2 °F 29.3 °F 58% 29.36 in 10.0 mi West 11.5 mph 23.0 mph N/A   Overcast
9:35 AM 43.7 °F 38.6 °F 29.1 °F 57% 29.37 in 10.0 mi West 9.2 mph 19.6 mph N/A   Overcast
9:55 AM 44.1 °F 38.6 °F 29.1 °F 56% 29.38 in 10.0 mi West 10.4 mph 21.9 mph N/A   Mostly Cloudy
10:15 AM 44.1 °F 37.4 °F 29.1 °F 56% 29.38 in 10.0 mi West 13.8 mph 25.3 mph N/A   Scattered Clouds
10:55 AM 44.6 °F 40.2 °F 29.3 °F 55% 29.39 in 10.0 mi West 8.1 mph 24.2 mph N/A   Mostly Cloudy
11:15 AM 45.0 °F 39.3 °F 29.3 °F 54% 29.40 in 10.0 mi West 11.5 mph 28.8 mph N/A   Overcast
11:35 AM 45.3 °F 39.3 °F 29.5 °F 54% 29.40 in 10.0 mi West 12.7 mph 20.7 mph N/A   Overcast
11:55 AM 45.7 °F 41.0 °F 29.8 °F 54% 29.41 in 10.0 mi West 9.2 mph 18.4 mph N/A   Overcast
12:15 PM 45.9 °F 41.2 °F 30.0 °F 54% 29.41 in 10.0 mi West 9.2 mph 20.7 mph N/A   Overcast
12:35 PM 46.6 °F - 30.2 °F 53% 29.42 in 10.0 mi West 12.7 mph 21.9 mph N/A   Overcast
12:55 PM 47.8 °F - 30.2 °F 50% 29.42 in 10.0 mi West 16.1 mph 26.5 mph N/A   Overcast
1:15 PM 49.5 °F - 30.2 °F 48% 29.41 in 10.0 mi West 18.4 mph 26.5 mph N/A   Overcast
1:35 PM 49.6 °F - 30.6 °F 48% 29.41 in 10.0 mi West 12.7 mph 24.2 mph N/A   Scattered Clouds
1:55 PM 49.3 °F - 30.2 °F 48% 29.42 in 10.0 mi West 16.1 mph 27.6 mph N/A   Mostly Cloudy
2:15 PM 48.0 °F - 29.7 °F 49% 29.42 in 10.0 mi West 15.0 mph 24.2 mph N/A   Overcast
2:35 PM 48.2 °F - 30.0 °F 49% 29.42 in 10.0 mi West 13.8 mph 24.2 mph N/A   Overcast
2:55 PM 48.0 °F - 30.0 °F 50% 29.43 in 10.0 mi West 11.5 mph 29.9 mph N/A   Overcast
3:15 PM 47.7 °F - 30.0 °F 50% 29.44 in 10.0 mi West 11.5 mph 19.6 mph N/A   Overcast
3:35 PM 47.7 °F - 30.4 °F 51% 29.44 in 10.0 mi West 11.5 mph 20.7 mph N/A   Overcast
3:55 PM 47.3 °F - 30.2 °F 52% 29.45 in 10.0 mi West 13.8 mph 25.3 mph N/A   Overcast
4:15 PM 46.9 °F - 30.2 °F 52% 29.46 in 10.0 mi West 4.6 mph 18.4 mph N/A   Overcast
4:35 PM 46.6 °F - 30.6 °F 54% 29.47 in 10.0 mi West 6.9 mph - N/A   Overcast
4:55 PM 46.4 °F 40.4 °F 30.6 °F 54% 29.48 in 10.0 mi West 13.8 mph 20.7 mph N/A   Overcast
5:15 PM 46.4 °F 40.7 °F 30.2 °F 53% 29.49 in 10.0 mi West 12.7 mph 20.7 mph N/A   Overcast
5:35 PM 46.0 °F 41.9 °F 30.4 °F 54% 29.50 in 10.0 mi West 8.1 mph 19.6 mph N/A   Overcast
5:55 PM 46.2 °F 42.2 °F 30.4 °F 54% 29.50 in 10.0 mi West 8.1 mph 23.0 mph N/A   Mostly Cloudy
6:15 PM 46.0 °F 42.5 °F 30.4 °F 54% 29.51 in 10.0 mi West 6.9 mph 19.6 mph N/A   Overcast
6:35 PM 46.0 °F 43.1 °F 30.6 °F 55% 29.53 in 10.0 mi West 5.8 mph 19.6 mph N/A   Overcast
6:55 PM 45.9 °F 42.3 °F 31.1 °F 56% 29.53 in 10.0 mi West 6.9 mph - N/A   Overcast
7:15 PM 45.9 °F 42.3 °F 31.1 °F 56% 29.53 in 10.0 mi West 6.9 mph - N/A   Overcast
7:35 PM 45.5 °F 41.3 °F 31.1 °F 57% 29.54 in 10.0 mi West 8.1 mph - N/A   Mostly Cloudy
7:55 PM 45.5 °F 41.3 °F 31.5 °F 58% 29.55 in 10.0 mi West 8.1 mph - N/A   Scattered Clouds
8:15 PM 45.3 °F 41.1 °F 31.3 °F 58% 29.56 in 10.0 mi West 8.1 mph 17.3 mph N/A   Clear
8:35 PM 45.0 °F 41.2 °F 31.1 °F 58% 29.56 in 10.0 mi West 6.9 mph 17.3 mph N/A   Clear
8:55 PM 45.0 °F 41.8 °F 31.1 °F 58% 29.56 in 10.0 mi West 5.8 mph - N/A   Clear
9:15 PM 44.8 °F 40.4 °F 31.1 °F 59% 29.57 in 10.0 mi West 8.1 mph 16.1 mph N/A   Clear
9:35 PM 44.2 °F 39.2 °F 31.1 °F 60% 29.58 in 10.0 mi West 9.2 mph - N/A   Clear
9:55 PM 44.1 °F 40.8 °F 31.3 °F 61% 29.58 in 10.0 mi West 5.8 mph - N/A   Scattered Clouds
10:15 PM 43.9 °F 38.8 °F 31.5 °F 62% 29.59 in 10.0 mi West 9.2 mph - N/A   Scattered Clouds
10:35 PM 44.2 °F 38.8 °F 31.5 °F 61% 29.59 in 10.0 mi West 10.4 mph 16.1 mph N/A   Mostly Cloudy
10:55 PM 44.8 °F 41.6 °F 31.5 °F 60% 29.59 in 10.0 mi West 5.8 mph 18.4 mph N/A   Mostly Cloudy
11:15 PM 44.8 °F 41.0 °F 31.5 °F 60% 29.59 in 10.0 mi West 6.9 mph - N/A   Mostly Cloudy
11:35 PM 44.4 °F 42.0 °F 31.6 °F 61% 29.59 in 10.0 mi West 4.6 mph - N/A   Scattered Clouds
11:55 PM 44.1 °F 41.5 °F 31.8 °F 62% 29.59 in 10.0 mi WSW 4.6 mph - N/A   Mostly Cloudy